HS2LXA-13 Weather Reports


time (UTC)temp
F
wind
direction
speed
knots
gust
knots
rain 1hr
in
rain 24hr
in
rain mn
in
humidity
%
barometer
mb
20260509201025 84 67 0.0 0.0 0.00 0.00 0.00 85 1008.4
20260509200027 84 0 0.0 0.0 0.00 0.00 0.00 85 1008.4
20260509195021 83 0 0.0 0.0 0.00 0.00 0.00 85 1008.3
20260509194020 84 0 0.0 0.0 0.00 0.00 0.00 85 1008.3
20260509193020 85 67 0.0 0.0 0.00 0.00 0.00 88 1008.4
20260509192020 85 67 0.0 0.0 0.00 0.00 0.00 93 1008.5
20260509191016 85 67 0.0 0.0 0.00 0.00 0.00 93 1008.4
20260509190014 85 67 0.0 0.0 0.00 0.00 0.00 93 1008.6
20260509185013 85 112 0.0 0.0 0.00 0.00 0.00 93 1008.6
20260509184011 85 112 0.0 0.0 0.00 0.00 0.00 93 1008.9
20260509183009 85 202 0.0 0.0 0.00 0.00 0.00 93 1008.8
20260509182012 85 0 0.0 0.0 0.00 0.00 0.00 93 1009.0
20260509180023 85 0 0.0 0.0 0.00 0.00 0.00 94 1009.0
20260509175022 85 0 0.0 0.0 0.00 0.00 0.00 94 1009.3
20260509174019 85 67 0.0 0.0 0.00 0.00 0.00 93 1009.5
20260509173018 85 112 0.0 0.0 0.00 0.00 0.00 93 1009.6
20260509172016 85 112 0.0 0.0 0.00 0.00 0.00 93 1009.7
20260509171014 85 67 0.0 0.0 0.00 0.00 0.00 93 1009.8
20260509170010 85 112 0.0 0.0 0.00 0.00 0.00 92 1009.7
20260509165008 85 67 0.0 0.0 0.00 0.00 0.00 93 1009.9
20260509164016 85 112 0.0 0.0 0.00 0.00 0.00 92 1010.0
20260509163005 86 67 0.0 0.0 0.00 0.00 0.00 92 1010.2
20260509162005 85 0 0.0 0.0 0.00 0.00 0.00 93 1010.1
20260509161003 86 0 0.0 0.0 0.00 0.00 0.00 92 1010.2
20260509160008 86 67 0.0 0.0 0.00 0.00 0.00 92 1010.3
20260509155001 86 0 0.0 0.0 0.00 0.00 0.00 93 1010.3
20260509154002 86 0 0.0 0.0 0.00 0.00 0.00 93 1010.3
20260509152956 85 112 0.0 0.0 0.00 0.00 0.00 93 1010.3
20260509151955 86 0 0.0 0.0 0.00 0.00 0.00 93 1010.3
20260509150953 85 0 0.0 0.0 0.00 0.00 0.00 94 1010.3
20260509145951 85 0 0.0 0.0 0.00 0.00 0.00 94 1010.1
20260509144943 86 0 0.0 0.0 0.00 0.00 0.00 94 1010.1
20260509143942 85 0 0.0 0.0 0.00 0.00 0.00 93 1009.9
20260509142939 86 0 0.0 0.0 0.00 0.00 0.00 92 1009.6
20260509141939 86 0 0.0 0.0 0.00 0.00 0.00 91 1009.7
20260509140939 86 0 0.0 0.0 0.00 0.00 0.00 90 1009.5
20260509135937 86 0 0.0 0.0 0.00 0.00 0.00 91 1009.2
20260509134935 87 0 0.0 0.0 0.00 0.00 0.00 90 1009.1
20260509133938 86 0 0.0 0.0 0.00 0.00 0.00 90 1008.9
20260509132932 87 0 0.0 0.0 0.00 0.00 0.00 90 1008.8
20260509131932 87 0 0.0 0.0 0.00 0.00 0.00 89 1008.5
20260509130931 87 112 0.0 0.0 0.00 0.00 0.00 89 1008.4
20260509125931 87 112 0.0 0.0 0.00 0.00 0.00 89 1008.2
20260509124929 87 112 0.0 0.0 0.00 0.00 0.00 88 1008.1
20260509123920 87 112 0.0 0.0 0.00 0.00 0.00 88 1007.9
20260509122919 88 112 0.0 0.0 0.00 0.00 0.00 88 1007.8
20260509121919 88 67 0.0 0.0 0.00 0.00 0.00 87 1007.6
20260509120916 88 112 0.0 0.0 0.00 0.00 0.00 86 1007.4
20260509115914 88 0 0.0 0.0 0.00 0.00 0.00 87 1007.2
20260509114915 88 112 0.0 0.0 0.00 0.00 0.00 85 1007.0
20260509113912 88 315 0.0 0.0 0.00 0.00 0.00 84 1007.0
20260509112916 89 67 0.0 0.0 0.00 0.00 0.00 84 1006.8
20260509111908 89 67 0.0 0.0 0.00 0.00 0.00 84 1006.6
20260509110906 89 67 0.0 0.0 0.00 0.00 0.00 83 1006.4
20260509105237 89 225 0.0 0.0 0.00 0.00 0.00 83 1006.6
20260509104232 90 112 0.0 0.0 0.00 0.00 0.00 81 1006.6
20260509103231 90 67 0.0 0.0 0.00 0.00 0.00 82 1006.5
20260509102231 91 202 0.0 0.0 0.00 0.00 0.00 82 1006.6
20260509101231 90 112 0.0 0.0 0.00 0.00 0.00 82 1006.8
20260509100230 91 0 0.0 0.0 0.00 0.00 0.00 80 1006.6
20260509095230 91 0 0.0 0.0 0.00 0.00 0.00 81 1006.7
20260509094228 92 315 0.0 0.0 0.00 0.00 0.00 82 1006.9
20260509093225 92 225 0.0 0.0 0.00 0.00 0.00 83 1006.9
20260509092223 91 112 40.0 89.5 0.00 0.00 0.00 83 1006.6
20260509091221 92 225 0.0 0.9 0.00 0.00 0.00 83 1006.8
20260509090220 92 112 0.0 0.0 0.00 0.00 0.00 83 1006.9
20260509085221 92 225 2.6 6.1 0.00 0.00 0.00 83 1007.0
20260509084217 93 112 4.3 9.6 0.00 0.00 0.00 78 1007.1
20260509083214 93 315 0.0 0.0 0.00 0.00 0.00 77 1007.1
20260509082213 94 202 0.0 0.0 0.00 0.00 0.00 76 1007.3
20260509081211 93 0 0.0 0.0 0.00 0.00 0.00 76 1007.4
20260509080214 95 112 0.0 0.0 0.00 0.00 0.00 76 1007.6
20260509075208 95 112 0.0 0.0 0.00 0.00 0.00 75 1007.6
20260509074207 95 225 0.0 0.9 0.00 0.00 0.00 74 1007.8
20260509073207 94 225 0.0 0.0 0.00 0.00 0.00 74 1008.0
20260509072202 94 315 0.9 2.6 0.00 0.00 0.00 74 1008.2
20260509071200 95 67 0.0 0.0 0.00 0.00 0.00 74 1008.3
20260509070200 95 112 0.0 0.0 0.00 0.00 0.00 75 1008.7
20260509065159 95 225 0.0 0.0 0.00 0.00 0.00 76 1008.9
20260509064157 95 112 1.7 4.3 0.00 0.00 0.00 74 1008.8
20260509063156 95 112 0.0 0.0 0.00 0.00 0.00 75 1008.9
20260509062149 95 0 0.0 0.0 0.00 0.00 0.00 76 1009.0
20260509061147 95 67 0.0 0.0 0.00 0.00 0.00 78 1009.2
20260509060146 95 112 0.0 0.0 0.00 0.00 0.00 76 1009.5
20260509055145 94 315 0.0 0.0 0.00 0.00 0.00 76 1009.6
20260509054144 94 112 0.0 0.0 0.00 0.00 0.00 77 1009.7
20260509053143 93 67 0.0 0.0 0.00 0.00 0.00 76 1009.8
20260509052143 95 67 0.0 0.0 0.00 0.00 0.00 78 1010.0
20260509051145 94 0 0.0 0.0 0.00 0.00 0.00 77 1010.1
20260509050139 95 0 0.0 0.0 0.00 0.00 0.00 77 1010.2
20260509045139 96 0 0.0 0.0 0.00 0.00 0.00 79 1010.4
20260509044136 95 225 0.0 0.0 0.00 0.00 0.00 78 1010.5
20260509043134 95 315 0.0 0.0 0.00 0.00 0.00 75 1010.6
20260509042133 94 225 0.0 0.0 0.00 0.00 0.00 75 1010.5
20260509041131 94 0 0.0 0.0 0.00 0.00 0.00 76 1010.7
20260509040130 94 22 0.0 0.0 0.00 0.00 0.00 77 1010.8
20260509035128 94 0 0.0 0.0 0.00 0.00 0.00 77 1010.9
20260509034127 93 112 0.0 0.0 0.00 0.00 0.00 77 1011.2
20260509033124 93 0 0.0 0.0 0.00 0.00 0.00 78 1011.3
20260509032122 92 0 0.0 0.0 0.00 0.00 0.00 79 1011.4
20260509031120 92 0 0.0 0.0 0.00 0.00 0.00 78 1011.5
20260509030120 91 270 0.0 0.0 0.00 0.00 0.00 78 1011.7
20260509025120 89 225 0.0 0.0 0.00 0.00 0.00 80 1011.9
20260509024119 89 0 0.0 0.0 0.00 0.00 0.00 80 1012.1
20260509023118 90 270 0.0 0.0 0.00 0.00 0.00 81 1012.0
20260509022116 88 0 0.0 0.0 0.00 0.00 0.00 81 1012.0
20260509021115 89 90 0.0 0.0 0.00 0.00 0.00 83 1011.9
20260509020112 89 112 0.0 0.0 0.00 0.00 0.00 84 1011.8
20260509015111 88 112 0.0 0.0 0.00 0.00 0.00 83 1011.6
20260509014111 87 22 0.0 0.0 0.00 0.00 0.00 84 1011.6
20260509013110 87 22 0.0 0.0 0.00 0.00 0.00 85 1011.6
20260509012109 89 270 0.0 0.0 0.00 0.00 0.00 86 1011.4
20260509011108 89 22 0.0 0.0 0.00 0.00 0.00 87 1011.4
20260509010106 90 225 0.0 0.0 0.00 0.00 0.00 88 1011.3
20260509005105 88 0 0.0 0.0 0.00 0.00 0.00 89 1011.3
20260509004104 90 22 0.0 0.0 0.00 0.00 0.00 89 1011.1
20260509003103 84 90 0.0 0.0 0.00 0.00 0.00 89 1011.0
20260509002101 86 0 0.0 0.0 0.00 0.00 0.00 89 1011.0
20260509001101 83 22 0.0 0.0 0.00 0.00 0.00 90 1010.9
20260509000057 82 90 0.0 0.0 0.00 0.00 0.00 91 1010.9
20260508235055 81 90 0.0 0.0 0.00 0.00 0.00 92 1010.8
20260508234054 80 202 0.0 0.0 0.00 0.00 0.00 91 1010.7
20260508233054 80 270 0.0 0.0 0.00 0.00 0.00 91 1010.6
20260508232053 79 112 0.0 0.0 0.00 0.00 0.00 90 1010.4
20260508231047 78 270 0.0 0.0 0.00 0.00 0.00 90 1010.1
20260508230045 79 0 0.0 0.0 0.00 0.00 0.00 89 1009.9
20260508225043 78 270 0.0 0.0 0.00 0.00 0.00 89 1009.8
20260508224041 78 112 0.0 0.0 0.00 0.00 0.00 89 1009.9
20260508223040 78 270 0.0 0.0 0.00 0.00 0.00 89 1009.8
20260508222044 79 270 0.0 0.0 0.00 0.00 0.00 88 1009.7
20260508221036 79 270 0.0 0.0 0.00 0.00 0.00 88 1009.4
20260508220034 79 270 0.0 0.0 0.00 0.00 0.00 88 1009.3
20260508215033 79 112 0.0 0.0 0.00 0.00 0.00 88 1009.3
20260508214032 78 112 0.0 0.0 0.00 0.00 0.00 89 1009.2
20260508213031 79 270 0.0 0.0 0.00 0.00 0.00 90 1009.1
20260508212030 79 270 0.0 0.0 0.00 0.00 0.00 93 1008.9
20260508211027 79 270 0.0 0.0 0.00 0.00 0.00 95 1009.0
20260508210025 78 270 0.0 0.0 0.00 0.00 0.00 94 1009.0
20260508205025 79 270 0.0 0.0 0.00 0.00 0.00 94 1009.0
20260508204023 79 270 0.0 0.0 0.00 0.00 0.00 95 1008.9
20260508203022 79 270 0.0 0.0 0.00 0.00 0.00 95 1008.8
20260508202022 79 270 0.0 0.0 0.00 0.00 0.00 94 1008.7